Year,Month,Day,Hour,Minute,Value (Times are PST for temperature in C)
2006,07,20,00,00,15.50
2006,07,20,00,01,15.50
2006,07,20,00,02,15.50
2006,07,20,00,03,15.50
2006,07,20,00,04,15.50
2006,07,20,00,05,15.50
2006,07,20,00,06,15.40
2006,07,20,00,07,15.40
2006,07,20,00,08,15.40
2006,07,20,00,09,15.40
2006,07,20,00,10,15.40
2006,07,20,00,11,15.30
2006,07,20,00,12,15.30
2006,07,20,00,13,15.30
2006,07,20,00,14,15.30
2006,07,20,00,15,15.30
2006,07,20,00,16,15.30
2006,07,20,00,17,15.30
2006,07,20,00,18,15.30
2006,07,20,00,19,15.20
2006,07,20,00,20,15.20
2006,07,20,00,21,15.20
2006,07,20,00,22,15.20
2006,07,20,00,23,15.10
2006,07,20,00,24,15.10
2006,07,20,00,25,15.10
2006,07,20,00,26,15.10
2006,07,20,00,27,15.00
2006,07,20,00,28,15.00
2006,07,20,00,29,15.00
2006,07,20,00,30,15.00
2006,07,20,00,31,14.90
2006,07,20,00,32,14.90
2006,07,20,00,33,14.90
2006,07,20,00,34,14.90
2006,07,20,00,35,14.90
2006,07,20,00,36,14.80
2006,07,20,00,37,14.80
2006,07,20,00,38,14.80
2006,07,20,00,39,14.80
2006,07,20,00,40,14.80
2006,07,20,00,41,14.80
2006,07,20,00,42,14.80
2006,07,20,00,43,14.80
2006,07,20,00,44,14.80
2006,07,20,00,45,14.80
2006,07,20,00,46,14.70
2006,07,20,00,47,14.70
2006,07,20,00,48,14.70
2006,07,20,00,49,14.70
2006,07,20,00,50,14.70
2006,07,20,00,51,14.70
2006,07,20,00,52,14.70
2006,07,20,00,53,14.70
2006,07,20,00,54,14.70
2006,07,20,00,55,14.70
2006,07,20,00,56,14.60
2006,07,20,00,57,14.60
2006,07,20,00,58,14.60
2006,07,20,00,59,14.60
2006,07,20,01,00,14.60
2006,07,20,01,01,14.60
2006,07,20,01,02,14.50
2006,07,20,01,03,14.50
2006,07,20,01,04,14.50
2006,07,20,01,05,14.50
2006,07,20,01,06,14.50
2006,07,20,01,07,14.50
2006,07,20,01,08,14.40
2006,07,20,01,09,14.40
2006,07,20,01,10,14.40
2006,07,20,01,11,14.30
2006,07,20,01,12,14.30
2006,07,20,01,13,14.30
2006,07,20,01,14,14.30
2006,07,20,01,15,14.20
2006,07,20,01,16,14.20
2006,07,20,01,17,14.20
2006,07,20,01,18,14.20
2006,07,20,01,19,14.20
2006,07,20,01,20,14.20
2006,07,20,01,21,14.20
2006,07,20,01,22,14.10
2006,07,20,01,23,14.10
2006,07,20,01,24,14.10
2006,07,20,01,25,14.10
2006,07,20,01,26,14.00
2006,07,20,01,27,14.00
2006,07,20,01,28,14.00
2006,07,20,01,29,14.00
2006,07,20,01,30,14.00
2006,07,20,01,31,13.90
2006,07,20,01,32,13.90
2006,07,20,01,33,13.90
2006,07,20,01,34,13.90
2006,07,20,01,35,13.90
2006,07,20,01,36,13.90
2006,07,20,01,37,13.90
2006,07,20,01,38,13.90
2006,07,20,01,39,13.90
2006,07,20,01,40,13.90
2006,07,20,01,41,13.90
2006,07,20,01,42,13.90
2006,07,20,01,43,13.90
2006,07,20,01,44,13.80
2006,07,20,01,45,13.80
2006,07,20,01,46,13.80
2006,07,20,01,47,13.80
2006,07,20,01,48,13.80
2006,07,20,01,49,13.80
2006,07,20,01,50,13.80
2006,07,20,01,51,13.80
2006,07,20,01,52,13.70
2006,07,20,01,53,13.70
2006,07,20,01,54,13.70
2006,07,20,01,55,13.70
2006,07,20,01,56,13.70
2006,07,20,01,57,13.70
2006,07,20,01,58,13.70
2006,07,20,01,59,13.70
2006,07,20,02,00,13.70
2006,07,20,02,01,13.70
2006,07,20,02,02,13.70
2006,07,20,02,03,13.70
2006,07,20,02,04,13.70
2006,07,20,02,05,13.70
2006,07,20,02,06,13.70
2006,07,20,02,07,13.70
2006,07,20,02,08,13.70
2006,07,20,02,09,13.70
2006,07,20,02,10,13.70
2006,07,20,02,11,13.70
2006,07,20,02,12,13.70
2006,07,20,02,13,13.70
2006,07,20,02,14,13.70
2006,07,20,02,15,13.70
2006,07,20,02,16,13.70
2006,07,20,02,17,13.70
2006,07,20,02,18,13.70
2006,07,20,02,19,13.70
2006,07,20,02,20,13.70
2006,07,20,02,21,13.70
2006,07,20,02,22,13.60
2006,07,20,02,23,13.60
2006,07,20,02,24,13.60
2006,07,20,02,25,13.60
2006,07,20,02,26,13.60
2006,07,20,02,27,13.60
2006,07,20,02,28,13.60
2006,07,20,02,29,13.60
2006,07,20,02,30,13.60
2006,07,20,02,31,13.60
2006,07,20,02,32,13.60
2006,07,20,02,33,13.60
2006,07,20,02,34,13.60
2006,07,20,02,35,13.50
2006,07,20,02,36,13.50
2006,07,20,02,37,13.50
2006,07,20,02,38,13.50
2006,07,20,02,39,13.50
2006,07,20,02,40,13.40
2006,07,20,02,41,13.40
2006,07,20,02,42,13.40
2006,07,20,02,43,13.40
2006,07,20,02,44,13.40
2006,07,20,02,45,13.40
2006,07,20,02,46,13.40
2006,07,20,02,47,13.30
2006,07,20,02,48,13.30
2006,07,20,02,49,13.30
2006,07,20,02,50,13.30
2006,07,20,02,51,13.30
2006,07,20,02,52,13.30
2006,07,20,02,53,13.30
2006,07,20,02,54,13.30
2006,07,20,02,55,13.30
2006,07,20,02,56,13.30
2006,07,20,02,57,13.30
2006,07,20,02,58,13.30
2006,07,20,02,59,13.20
2006,07,20,03,00,13.20
2006,07,20,03,01,13.20
2006,07,20,03,02,13.10
2006,07,20,03,03,13.10
2006,07,20,03,04,13.10
2006,07,20,03,05,13.10
2006,07,20,03,06,13.00
2006,07,20,03,07,13.00
2006,07,20,03,08,13.00
2006,07,20,03,09,13.00
2006,07,20,03,10,13.00
2006,07,20,03,11,13.00
2006,07,20,03,12,12.90
2006,07,20,03,13,12.90
2006,07,20,03,14,12.90
2006,07,20,03,15,12.90
2006,07,20,03,16,12.80
2006,07,20,03,17,12.80
2006,07,20,03,18,12.80
2006,07,20,03,19,12.80
2006,07,20,03,20,12.80
2006,07,20,03,21,12.80
2006,07,20,03,22,12.80
2006,07,20,03,23,12.80
2006,07,20,03,24,12.80
2006,07,20,03,25,12.80
2006,07,20,03,26,12.80
2006,07,20,03,27,12.80
2006,07,20,03,28,12.80
2006,07,20,03,29,12.80
2006,07,20,03,30,12.80
2006,07,20,03,31,12.80
2006,07,20,03,32,12.80
2006,07,20,03,33,12.80
2006,07,20,03,34,12.70
2006,07,20,03,35,12.70
2006,07,20,03,36,12.70
2006,07,20,03,37,12.70
2006,07,20,03,38,12.70
2006,07,20,03,39,12.70
2006,07,20,03,40,12.70
2006,07,20,03,41,12.70
2006,07,20,03,42,12.70
2006,07,20,03,43,12.70
2006,07,20,03,44,12.70
2006,07,20,03,45,12.70
2006,07,20,03,46,12.70
2006,07,20,03,47,12.70
2006,07,20,03,48,12.70
2006,07,20,03,49,12.70
2006,07,20,03,50,12.70
2006,07,20,03,51,12.70
2006,07,20,03,52,12.70
2006,07,20,03,53,12.70
2006,07,20,03,54,12.70
2006,07,20,03,55,12.60
2006,07,20,03,56,12.60
2006,07,20,03,57,12.60
2006,07,20,03,58,12.60
2006,07,20,03,59,12.60
2006,07,20,04,00,12.60
2006,07,20,04,01,12.60
2006,07,20,04,02,12.60
2006,07,20,04,03,12.60
2006,07,20,04,04,12.60
2006,07,20,04,05,12.60
2006,07,20,04,06,12.60
2006,07,20,04,07,12.60
2006,07,20,04,08,12.60
2006,07,20,04,09,12.50
2006,07,20,04,10,12.50
2006,07,20,04,11,12.50
2006,07,20,04,12,12.50
2006,07,20,04,13,12.50
2006,07,20,04,14,12.50
2006,07,20,04,15,12.50
2006,07,20,04,16,12.50
2006,07,20,04,17,12.50
2006,07,20,04,18,12.50
2006,07,20,04,19,12.50
2006,07,20,04,20,12.50
2006,07,20,04,21,12.50
2006,07,20,04,22,12.50
2006,07,20,04,23,12.50
2006,07,20,04,24,12.50
2006,07,20,04,25,12.50
2006,07,20,04,26,12.50
2006,07,20,04,27,12.50
2006,07,20,04,28,12.50
2006,07,20,04,29,12.50
2006,07,20,04,30,12.50
2006,07,20,04,31,12.50
2006,07,20,04,32,12.40
2006,07,20,04,33,12.40
2006,07,20,04,34,12.40
2006,07,20,04,35,12.40
2006,07,20,04,36,12.40
2006,07,20,04,37,12.40
2006,07,20,04,38,12.40
2006,07,20,04,39,12.40
2006,07,20,04,40,12.30
2006,07,20,04,41,12.30
2006,07,20,04,42,12.30
2006,07,20,04,43,12.30
2006,07,20,04,44,12.30
2006,07,20,04,45,12.30
2006,07,20,04,46,12.30
2006,07,20,04,47,12.30
2006,07,20,04,48,12.30
2006,07,20,04,49,12.30
2006,07,20,04,50,12.30
2006,07,20,04,51,12.30
2006,07,20,04,52,12.20
2006,07,20,04,53,12.20
2006,07,20,04,54,12.20
2006,07,20,04,55,12.20
2006,07,20,04,56,12.20
2006,07,20,04,57,12.20
2006,07,20,04,58,12.10
2006,07,20,04,59,12.10
2006,07,20,05,00,12.10
2006,07,20,05,01,12.10
2006,07,20,05,02,12.10
2006,07,20,05,03,12.10
2006,07,20,05,04,12.10
2006,07,20,05,05,12.10
2006,07,20,05,06,12.10
2006,07,20,05,07,12.00
2006,07,20,05,08,12.00
2006,07,20,05,09,12.00
2006,07,20,05,10,12.00
2006,07,20,05,11,12.00
2006,07,20,05,12,12.00
2006,07,20,05,13,12.00
2006,07,20,05,14,12.00
2006,07,20,05,15,12.00
2006,07,20,05,16,12.00
2006,07,20,05,17,12.00
2006,07,20,05,18,12.00
2006,07,20,05,19,12.00
2006,07,20,05,20,12.00
2006,07,20,05,21,12.00
2006,07,20,05,22,12.00
2006,07,20,05,23,12.10
2006,07,20,05,24,12.10
2006,07,20,05,25,12.10
2006,07,20,05,26,12.10
2006,07,20,05,27,12.20
2006,07,20,05,28,12.20
2006,07,20,05,29,12.20
2006,07,20,05,30,12.20
2006,07,20,05,31,12.20
2006,07,20,05,32,12.20
2006,07,20,05,33,12.20
2006,07,20,05,34,12.10
2006,07,20,05,35,12.10
2006,07,20,05,36,12.10
2006,07,20,05,37,12.10
2006,07,20,05,38,12.10
2006,07,20,05,39,12.10
2006,07,20,05,40,12.10
2006,07,20,05,41,12.10
2006,07,20,05,42,12.00
2006,07,20,05,43,12.00
2006,07,20,05,44,12.00
2006,07,20,05,45,12.00
2006,07,20,05,46,12.00
2006,07,20,05,47,12.00
2006,07,20,05,48,12.00
2006,07,20,05,49,12.00
2006,07,20,05,50,12.00
2006,07,20,05,51,12.00
2006,07,20,05,52,12.00
2006,07,20,05,53,12.00
2006,07,20,05,54,12.00
2006,07,20,05,55,12.00
2006,07,20,05,56,12.00
2006,07,20,05,57,12.00
2006,07,20,05,58,12.00
2006,07,20,05,59,12.00
2006,07,20,06,00,12.00
2006,07,20,06,01,12.00
2006,07,20,06,02,12.00
2006,07,20,06,03,12.00
2006,07,20,06,04,12.00
2006,07,20,06,05,12.00
2006,07,20,06,06,12.00
2006,07,20,06,07,12.00
2006,07,20,06,08,12.00
2006,07,20,06,09,12.00
2006,07,20,06,10,12.00
2006,07,20,06,11,12.00
2006,07,20,06,12,12.00
2006,07,20,06,13,12.00
2006,07,20,06,14,12.00
2006,07,20,06,15,12.00
2006,07,20,06,16,12.00
2006,07,20,06,17,12.10
2006,07,20,06,18,12.10
2006,07,20,06,19,12.10
2006,07,20,06,20,12.10
2006,07,20,06,21,12.20
2006,07,20,06,22,12.20
2006,07,20,06,23,12.30
2006,07,20,06,24,12.30
2006,07,20,06,25,12.40
2006,07,20,06,26,12.50
2006,07,20,06,27,12.50
2006,07,20,06,28,12.60
2006,07,20,06,29,12.70
2006,07,20,06,30,12.80
2006,07,20,06,31,12.80
2006,07,20,06,32,12.90
2006,07,20,06,33,12.90
2006,07,20,06,34,13.00
2006,07,20,06,35,13.00
2006,07,20,06,36,13.10
2006,07,20,06,37,13.20
2006,07,20,06,38,13.30
2006,07,20,06,39,13.30
2006,07,20,06,40,13.30
2006,07,20,06,41,13.40
2006,07,20,06,42,13.40
2006,07,20,06,43,13.50
2006,07,20,06,44,13.60
2006,07,20,06,45,13.60
2006,07,20,06,46,13.70
2006,07,20,06,47,13.80
2006,07,20,06,48,13.90
2006,07,20,06,49,14.00
2006,07,20,06,50,14.10
2006,07,20,06,51,14.20
2006,07,20,06,52,14.40
2006,07,20,06,53,14.50
2006,07,20,06,54,14.50
2006,07,20,06,55,14.60
2006,07,20,06,56,14.70
2006,07,20,06,57,14.70
2006,07,20,06,58,14.80
2006,07,20,06,59,14.80
2006,07,20,07,00,14.90
2006,07,20,07,01,14.90
2006,07,20,07,02,15.00
2006,07,20,07,03,15.00
2006,07,20,07,04,15.10
2006,07,20,07,05,15.20
2006,07,20,07,06,15.30
2006,07,20,07,07,15.30
2006,07,20,07,08,15.50
2006,07,20,07,09,15.50
2006,07,20,07,10,15.60
2006,07,20,07,11,15.70
2006,07,20,07,12,15.80
2006,07,20,07,13,15.90
2006,07,20,07,14,16.00
2006,07,20,07,15,16.10
2006,07,20,07,16,16.20
2006,07,20,07,17,16.20
2006,07,20,07,18,16.30
2006,07,20,07,19,16.40
2006,07,20,07,20,16.40
2006,07,20,07,21,16.50
2006,07,20,07,22,16.60
2006,07,20,07,23,16.70
2006,07,20,07,24,16.70
2006,07,20,07,25,16.80
2006,07,20,07,26,16.90
2006,07,20,07,27,16.90
2006,07,20,07,28,16.90
2006,07,20,07,29,17.00
2006,07,20,07,30,17.10
2006,07,20,07,31,17.10
2006,07,20,07,32,17.30
2006,07,20,07,33,17.30
2006,07,20,07,34,17.40
2006,07,20,07,35,17.50
2006,07,20,07,36,17.70
2006,07,20,07,37,17.80
2006,07,20,07,38,17.90
2006,07,20,07,39,18.00
2006,07,20,07,40,18.10
2006,07,20,07,41,18.20
2006,07,20,07,42,18.20
2006,07,20,07,43,18.20
2006,07,20,07,44,18.20
2006,07,20,07,45,18.10
2006,07,20,07,46,18.10
2006,07,20,07,47,18.00
2006,07,20,07,48,17.90
2006,07,20,07,49,17.90
2006,07,20,07,50,17.90
2006,07,20,07,51,17.90
2006,07,20,07,52,17.90
2006,07,20,07,53,17.80
2006,07,20,07,54,17.90
2006,07,20,07,55,17.80
2006,07,20,07,56,17.70
2006,07,20,07,57,17.60
2006,07,20,07,58,17.60
2006,07,20,07,59,17.70
2006,07,20,08,00,17.80
2006,07,20,08,01,17.80
2006,07,20,08,02,17.80
2006,07,20,08,03,17.80
2006,07,20,08,04,17.80
2006,07,20,08,05,17.90
2006,07,20,08,06,17.90
2006,07,20,08,07,17.90
2006,07,20,08,08,18.00
2006,07,20,08,09,18.10
2006,07,20,08,10,18.10
2006,07,20,08,11,18.10
2006,07,20,08,12,18.10
2006,07,20,08,13,18.20
2006,07,20,08,14,18.20
2006,07,20,08,15,18.20
2006,07,20,08,16,18.30
2006,07,20,08,17,18.30
2006,07,20,08,18,18.40
2006,07,20,08,19,18.30
2006,07,20,08,20,18.40
2006,07,20,08,21,18.40
2006,07,20,08,22,18.50
2006,07,20,08,23,18.50
2006,07,20,08,24,18.50
2006,07,20,08,25,18.50
2006,07,20,08,26,18.60
2006,07,20,08,27,18.60
2006,07,20,08,28,18.60
2006,07,20,08,29,18.60
2006,07,20,08,30,18.60
2006,07,20,08,31,18.60
2006,07,20,08,32,18.70
2006,07,20,08,33,18.80
2006,07,20,08,34,18.90
2006,07,20,08,35,18.90
2006,07,20,08,36,18.90
2006,07,20,08,37,19.10
2006,07,20,08,38,19.10
2006,07,20,08,39,19.20
2006,07,20,08,40,19.30
2006,07,20,08,41,19.40
2006,07,20,08,42,19.50
2006,07,20,08,43,19.70
2006,07,20,08,44,19.80
2006,07,20,08,45,19.90
2006,07,20,08,46,20.00
2006,07,20,08,47,20.10
2006,07,20,08,48,20.10
2006,07,20,08,49,20.20
2006,07,20,08,50,20.20
2006,07,20,08,51,20.30
2006,07,20,08,52,20.40
2006,07,20,08,53,20.50
2006,07,20,08,54,20.60
2006,07,20,08,55,20.70
2006,07,20,08,56,20.70
2006,07,20,08,57,20.80
2006,07,20,08,58,20.90
2006,07,20,08,59,20.90
2006,07,20,09,00,21.00
2006,07,20,09,01,21.00
2006,07,20,09,02,21.10
2006,07,20,09,03,21.10
2006,07,20,09,04,21.30
2006,07,20,09,05,21.40
2006,07,20,09,06,21.40
2006,07,20,09,07,21.50
2006,07,20,09,08,21.60
2006,07,20,09,09,21.50
2006,07,20,09,10,21.40
2006,07,20,09,11,21.40
2006,07,20,09,12,21.30
2006,07,20,09,13,21.40
2006,07,20,09,14,21.50
2006,07,20,09,15,21.60
2006,07,20,09,16,21.60
2006,07,20,09,17,21.70
2006,07,20,09,18,21.80
2006,07,20,09,19,21.90
2006,07,20,09,20,21.90
2006,07,20,09,21,21.90
2006,07,20,09,22,21.90
2006,07,20,09,23,21.90
2006,07,20,09,24,21.90
2006,07,20,09,25,21.70
2006,07,20,09,26,21.60
2006,07,20,09,27,21.60
2006,07,20,09,28,21.60
2006,07,20,09,29,21.60
2006,07,20,09,30,21.60
2006,07,20,09,31,21.70
2006,07,20,09,32,21.80
2006,07,20,09,33,21.90
2006,07,20,09,34,22.00
2006,07,20,09,35,22.00
2006,07,20,09,36,22.10
2006,07,20,09,37,22.20
2006,07,20,09,38,22.30
2006,07,20,09,39,22.30
2006,07,20,09,40,22.40
2006,07,20,09,41,22.40
2006,07,20,09,42,22.40
2006,07,20,09,43,22.50
2006,07,20,09,44,22.50
2006,07,20,09,45,22.50
2006,07,20,09,46,22.60
2006,07,20,09,47,22.60
2006,07,20,09,48,22.60
2006,07,20,09,49,22.70
2006,07,20,09,50,22.70
2006,07,20,09,51,22.70
2006,07,20,09,52,22.70
2006,07,20,09,53,22.80
2006,07,20,09,54,22.80
2006,07,20,09,55,22.90
2006,07,20,09,56,22.90
2006,07,20,09,57,22.90
2006,07,20,09,58,22.70
2006,07,20,09,59,22.70
2006,07,20,10,00,22.70
2006,07,20,10,01,22.70
2006,07,20,10,02,22.80
2006,07,20,10,03,22.80
2006,07,20,10,04,22.80
2006,07,20,10,05,22.80
2006,07,20,10,06,22.90
2006,07,20,10,07,22.90
2006,07,20,10,08,22.90
2006,07,20,10,09,23.00
2006,07,20,10,10,23.10
2006,07,20,10,11,23.10
2006,07,20,10,12,23.10
2006,07,20,10,13,23.10
2006,07,20,10,14,23.10
2006,07,20,10,15,23.10
2006,07,20,10,16,23.10
2006,07,20,10,17,23.10
2006,07,20,10,18,23.20
2006,07,20,10,19,23.30
2006,07,20,10,20,23.30
2006,07,20,10,21,23.30
2006,07,20,10,22,23.30
2006,07,20,10,23,23.30
2006,07,20,10,24,23.30
2006,07,20,10,25,23.30
2006,07,20,10,26,23.30
2006,07,20,10,27,23.40
2006,07,20,10,28,23.60
2006,07,20,10,29,23.70
2006,07,20,10,30,23.70
2006,07,20,10,31,23.70
2006,07,20,10,32,23.70
2006,07,20,10,33,23.70
2006,07,20,10,34,23.60
2006,07,20,10,35,23.60
2006,07,20,10,36,23.60
2006,07,20,10,37,23.50
2006,07,20,10,38,23.40
2006,07,20,10,39,23.40
2006,07,20,10,40,23.40
2006,07,20,10,41,23.40
2006,07,20,10,42,23.30
2006,07,20,10,43,23.20
2006,07,20,10,44,23.20
2006,07,20,10,45,23.20
2006,07,20,10,46,23.10
2006,07,20,10,47,23.20
2006,07,20,10,48,23.30
2006,07,20,10,49,23.30
2006,07,20,10,50,23.00
2006,07,20,10,51,22.90
2006,07,20,10,52,22.80
2006,07,20,10,53,22.70
2006,07,20,10,54,22.50
2006,07,20,10,55,22.40
2006,07,20,10,56,22.30
2006,07,20,10,57,22.20
2006,07,20,10,58,22.00
2006,07,20,10,59,22.00
2006,07,20,11,00,22.00
2006,07,20,11,01,22.00
2006,07,20,11,02,22.10
2006,07,20,11,03,22.10
2006,07,20,11,04,22.20
2006,07,20,11,05,22.30
2006,07,20,11,06,22.30
2006,07,20,11,07,22.40
2006,07,20,11,08,22.40
2006,07,20,11,09,22.40
2006,07,20,11,10,22.50
2006,07,20,11,11,22.50
2006,07,20,11,12,22.50
2006,07,20,11,13,22.40
2006,07,20,11,14,22.30
2006,07,20,11,15,22.30
2006,07,20,11,16,22.30
2006,07,20,11,17,22.30
2006,07,20,11,18,22.30
2006,07,20,11,19,22.30
2006,07,20,11,20,22.30
2006,07,20,11,21,22.20
2006,07,20,11,22,22.10
2006,07,20,11,23,21.90
2006,07,20,11,24,21.70
2006,07,20,11,25,21.70
2006,07,20,11,26,21.70
2006,07,20,11,27,21.80
2006,07,20,11,28,21.90
2006,07,20,11,29,22.10
2006,07,20,11,30,22.30
2006,07,20,11,31,22.40
2006,07,20,11,32,22.50
2006,07,20,11,33,22.30
2006,07,20,11,34,22.20
2006,07,20,11,35,22.20
2006,07,20,11,36,22.00
2006,07,20,11,37,21.80
2006,07,20,11,38,21.70
2006,07,20,11,39,21.60
2006,07,20,11,40,21.60
2006,07,20,11,41,21.70
2006,07,20,11,42,21.70
2006,07,20,11,43,21.70
2006,07,20,11,44,21.70
2006,07,20,11,45,21.70
2006,07,20,11,46,21.80
2006,07,20,11,47,21.90
2006,07,20,11,48,22.10
2006,07,20,11,49,22.20
2006,07,20,11,50,22.30
2006,07,20,11,51,22.40
2006,07,20,11,52,22.50
2006,07,20,11,53,22.50
2006,07,20,11,54,22.50
2006,07,20,11,55,22.30
2006,07,20,11,56,22.20
2006,07,20,11,57,22.20
2006,07,20,11,58,22.20
2006,07,20,11,59,22.30
2006,07,20,12,00,22.40
2006,07,20,12,01,22.30
2006,07,20,12,02,22.30
2006,07,20,12,03,22.30
2006,07,20,12,04,22.30
2006,07,20,12,05,22.30
2006,07,20,12,06,22.30
2006,07,20,12,07,22.30
2006,07,20,12,08,22.30
2006,07,20,12,09,22.30
2006,07,20,12,10,22.30
2006,07,20,12,11,22.30
2006,07,20,12,12,22.40
2006,07,20,12,13,22.50
2006,07,20,12,14,22.60
2006,07,20,12,15,22.60
2006,07,20,12,16,22.60
2006,07,20,12,17,22.70
2006,07,20,12,18,22.80
2006,07,20,12,19,22.90
2006,07,20,12,20,23.10
2006,07,20,12,21,23.30
2006,07,20,12,22,23.20
2006,07,20,12,23,23.10
2006,07,20,12,24,23.00
2006,07,20,12,25,23.00
2006,07,20,12,26,23.10
2006,07,20,12,27,23.10
2006,07,20,12,28,23.20
2006,07,20,12,29,23.30
2006,07,20,12,30,23.30
2006,07,20,12,31,23.30
2006,07,20,12,32,23.40
2006,07,20,12,33,23.50
2006,07,20,12,34,23.60
2006,07,20,12,35,23.50
2006,07,20,12,36,23.40
2006,07,20,12,37,23.40
2006,07,20,12,38,23.50
2006,07,20,12,39,23.60
2006,07,20,12,40,23.70
2006,07,20,12,41,23.70
2006,07,20,12,42,23.80
2006,07,20,12,43,23.80
2006,07,20,12,44,23.80
2006,07,20,12,45,23.70
2006,07,20,12,46,23.70
2006,07,20,12,47,23.70
2006,07,20,12,48,23.70
2006,07,20,12,49,23.70
2006,07,20,12,50,23.70
2006,07,20,12,51,23.70
2006,07,20,12,52,23.70
2006,07,20,12,53,23.70
2006,07,20,12,54,23.70
2006,07,20,12,55,23.60
2006,07,20,12,56,23.60
2006,07,20,12,57,23.60
2006,07,20,12,58,23.60
2006,07,20,12,59,23.60
2006,07,20,13,00,23.60
2006,07,20,13,01,23.60
2006,07,20,13,02,23.60
2006,07,20,13,03,23.70
2006,07,20,13,04,23.60
2006,07,20,13,05,23.60
2006,07,20,13,06,23.60
2006,07,20,13,07,23.60
2006,07,20,13,08,23.50
2006,07,20,13,09,23.40
2006,07,20,13,10,23.60
2006,07,20,13,11,23.70
2006,07,20,13,12,23.60
2006,07,20,13,13,23.60
2006,07,20,13,14,23.50
2006,07,20,13,15,23.60
2006,07,20,13,16,23.60
2006,07,20,13,17,23.60
2006,07,20,13,18,23.70
2006,07,20,13,19,23.60
2006,07,20,13,20,23.70
2006,07,20,13,21,23.70
2006,07,20,13,22,23.70
2006,07,20,13,23,23.70
2006,07,20,13,24,23.70
2006,07,20,13,25,23.90
2006,07,20,13,26,24.10
2006,07,20,13,27,24.20
2006,07,20,13,28,24.10
2006,07,20,13,29,24.10
2006,07,20,13,30,24.10
2006,07,20,13,31,24.00
2006,07,20,13,32,23.90
2006,07,20,13,33,23.80
2006,07,20,13,34,23.80
2006,07,20,13,35,23.90
2006,07,20,13,36,23.90
2006,07,20,13,37,23.80
2006,07,20,13,38,23.90
2006,07,20,13,39,24.00
2006,07,20,13,40,24.10
2006,07,20,13,41,23.90
2006,07,20,13,42,23.70
2006,07,20,13,43,23.60
2006,07,20,13,44,23.50
2006,07,20,13,45,23.50
2006,07,20,13,46,23.60
2006,07,20,13,47,23.60
2006,07,20,13,48,23.70
2006,07,20,13,49,23.60
2006,07,20,13,50,23.50
2006,07,20,13,51,23.30
2006,07,20,13,52,23.10
2006,07,20,13,53,23.10
2006,07,20,13,54,23.00
2006,07,20,13,55,22.90
2006,07,20,13,56,22.90
2006,07,20,13,57,22.90
2006,07,20,13,58,22.90
2006,07,20,13,59,23.00
2006,07,20,14,00,23.10
2006,07,20,14,01,23.20
2006,07,20,14,02,23.30
2006,07,20,14,03,23.30
2006,07,20,14,04,23.50
2006,07,20,14,05,23.60
2006,07,20,14,06,23.70
2006,07,20,14,07,23.80
2006,07,20,14,08,23.90
2006,07,20,14,09,23.90
2006,07,20,14,10,23.90
2006,07,20,14,11,23.80
2006,07,20,14,12,23.70
2006,07,20,14,13,23.70
2006,07,20,14,14,23.70
2006,07,20,14,15,23.60
2006,07,20,14,16,23.40
2006,07,20,14,17,23.40
2006,07,20,14,18,23.30
2006,07,20,14,19,23.30
2006,07,20,14,20,23.30
2006,07,20,14,21,23.30
2006,07,20,14,22,23.30
2006,07,20,14,23,23.30
2006,07,20,14,24,23.40
2006,07,20,14,25,23.50
2006,07,20,14,26,23.60
2006,07,20,14,27,23.70
2006,07,20,14,28,23.70
2006,07,20,14,29,23.80
2006,07,20,14,30,23.90
2006,07,20,14,31,24.00
2006,07,20,14,32,24.10
2006,07,20,14,33,24.20
2006,07,20,14,34,24.20
2006,07,20,14,35,24.10
2006,07,20,14,36,24.10
2006,07,20,14,37,24.20
2006,07,20,14,38,24.20
2006,07,20,14,39,24.20
2006,07,20,14,40,24.30
2006,07,20,14,41,24.30
2006,07,20,14,42,24.10
2006,07,20,14,43,24.10
2006,07,20,14,44,24.10
2006,07,20,14,45,24.10
2006,07,20,14,46,24.10
2006,07,20,14,47,24.10
2006,07,20,14,48,24.10
2006,07,20,14,49,24.20
2006,07,20,14,50,24.30
2006,07,20,14,51,24.40
2006,07,20,14,52,24.40
2006,07,20,14,53,24.50
2006,07,20,14,54,24.60
2006,07,20,14,55,24.70
2006,07,20,14,56,24.70
2006,07,20,14,57,24.70
2006,07,20,14,58,24.80
2006,07,20,14,59,24.90
2006,07,20,15,00,24.90
2006,07,20,15,01,25.00
2006,07,20,15,02,24.90
2006,07,20,15,03,24.90
2006,07,20,15,04,25.00
2006,07,20,15,05,25.00
2006,07,20,15,06,25.10
2006,07,20,15,07,25.10
2006,07,20,15,08,25.30
2006,07,20,15,09,25.40
2006,07,20,15,10,25.60
2006,07,20,15,11,25.80
2006,07,20,15,12,25.90
2006,07,20,15,13,25.90
2006,07,20,15,14,26.00
2006,07,20,15,15,26.10
2006,07,20,15,16,26.40
2006,07,20,15,17,26.60
2006,07,20,15,18,26.60
2006,07,20,15,19,26.70
2006,07,20,15,20,26.60
2006,07,20,15,21,26.50
2006,07,20,15,22,26.40
2006,07,20,15,23,26.30
2006,07,20,15,24,26.20
2006,07,20,15,25,26.20
2006,07,20,15,26,26.10
2006,07,20,15,27,26.10
2006,07,20,15,28,26.10
2006,07,20,15,29,26.10
2006,07,20,15,30,26.00
2006,07,20,15,31,26.10
2006,07,20,15,32,26.10
2006,07,20,15,33,26.20
2006,07,20,15,34,26.20
2006,07,20,15,35,26.30
2006,07,20,15,36,26.30
2006,07,20,15,37,26.30
2006,07,20,15,38,26.20
2006,07,20,15,39,26.10
2006,07,20,15,40,26.10
2006,07,20,15,41,26.10
2006,07,20,15,42,26.10
2006,07,20,15,43,26.20
2006,07,20,15,44,26.30
2006,07,20,15,45,26.30
2006,07,20,15,46,26.30
2006,07,20,15,47,26.30
2006,07,20,15,48,26.40
2006,07,20,15,49,26.40
2006,07,20,15,50,26.50
2006,07,20,15,51,26.60
2006,07,20,15,52,26.60
2006,07,20,15,53,26.80
2006,07,20,15,54,26.90
2006,07,20,15,55,26.90
2006,07,20,15,56,26.80
2006,07,20,15,57,26.80
2006,07,20,15,58,26.80
2006,07,20,15,59,26.80
2006,07,20,16,00,26.80
2006,07,20,16,01,26.90
2006,07,20,16,02,26.80
2006,07,20,16,03,26.90
2006,07,20,16,04,26.90
2006,07,20,16,05,26.90
2006,07,20,16,06,27.00
2006,07,20,16,07,27.00
2006,07,20,16,08,26.90
2006,07,20,16,09,26.90
2006,07,20,16,10,26.90
2006,07,20,16,11,27.00
2006,07,20,16,12,27.10
2006,07,20,16,13,27.10
2006,07,20,16,14,27.10
2006,07,20,16,15,27.10
2006,07,20,16,16,26.90
2006,07,20,16,17,26.80
2006,07,20,16,18,26.70
2006,07,20,16,19,26.60
2006,07,20,16,20,26.60
2006,07,20,16,21,26.60
2006,07,20,16,22,26.60
2006,07,20,16,23,26.60
2006,07,20,16,24,26.60
2006,07,20,16,25,26.60
2006,07,20,16,26,26.60
2006,07,20,16,27,26.60
2006,07,20,16,28,26.60
2006,07,20,16,29,26.60
2006,07,20,16,30,26.60
2006,07,20,16,31,26.60
2006,07,20,16,32,26.60
2006,07,20,16,33,26.50
2006,07,20,16,34,26.40
2006,07,20,16,35,26.60
2006,07,20,16,36,26.60
2006,07,20,16,37,26.60
2006,07,20,16,38,26.60
2006,07,20,16,39,26.60
2006,07,20,16,40,26.60
2006,07,20,16,41,26.60
2006,07,20,16,42,26.60
2006,07,20,16,43,26.40
2006,07,20,16,44,26.40
2006,07,20,16,45,26.40
2006,07,20,16,46,26.30
2006,07,20,16,47,26.40
2006,07,20,16,48,26.40
2006,07,20,16,49,26.30
2006,07,20,16,50,26.30
2006,07,20,16,51,26.30
2006,07,20,16,52,26.30
2006,07,20,16,53,26.30
2006,07,20,16,54,26.30
2006,07,20,16,55,26.40
2006,07,20,16,56,26.50
2006,07,20,16,57,26.60
2006,07,20,16,58,26.60
2006,07,20,16,59,26.60
2006,07,20,17,00,26.60
2006,07,20,17,01,26.70
2006,07,20,17,02,26.80
2006,07,20,17,03,26.90
2006,07,20,17,04,27.00
2006,07,20,17,05,27.10
2006,07,20,17,06,27.00
2006,07,20,17,07,26.80
2006,07,20,17,08,26.70
2006,07,20,17,09,26.70
2006,07,20,17,10,26.70
2006,07,20,17,11,26.80
2006,07,20,17,12,26.90
2006,07,20,17,13,27.00
2006,07,20,17,14,27.10
2006,07,20,17,15,27.00
2006,07,20,17,16,26.80
2006,07,20,17,17,26.80
2006,07,20,17,18,26.70
2006,07,20,17,19,26.70